Wind_Speed
32 31 31 31 31 31 30 30 29 29 29 29 29 28 28 28 28 28 28 28 27 26 26 25 25 24 23 23 23 23 23 23 24 24 24 25 25 26 26 27 27 28 29 29 30 31 31 32 32 33 34 34 35 36 37 38 40 41 42 43 45 45 46 46 46 47 49 50 51 52 52 53 54 55 55 55 56 57 57 58 58 59 60 60 61
32 32 31 31 31 31 31 31 30 30 30 29 29 29 29 29 29 29 29 29 29 28 28 27 26 25 24 24 24 24 24 24 24 24 24 24 25 26 27 28 28 29 29 30 31 32 32 33 34 34 34 35 36 36 37 38 39 40 41 43 44 45 46 47 48 48 49 51 52 53 54 54 55 57 57 57 58 58 59 59 60 60 61 61 62
33 33 32 32 32 31 31 31 30 30 30 30 30 30 30 30 31 31 30 30 29 29 29 28 28 27 26 25 25 25 25 25 25 25 24 24 24 25 26 27 28 29 29 30 31 32 33 34 34 34 35 36 37 37 38 39 40 41 42 43 44 46 47 48 49 49 50 51 53 55 56 56 57 58 59 59 60 60 61 61 62 62 63 63 64
33 34 33 33 32 32 32 32 32 31 31 31 30 30 30 31 31 31 31 31 30 30 30 30 29 29 28 27 26 26 26 26 26 26 26 25 25 25 26 27 27 28 29 30 31 32 33 34 35 35 35 36 37 38 39 40 41 42 43 44 45 46 47 48 49 50 50 51 53 54 55 57 57 58 60 60 60 61 61 62 62 63 63 64 64
34 34 34 34 34 33 33 33 33 33 33 33 33 32 31 31 31 31 32 32 31 31 30 30 30 30 29 28 28 27 27 27 28 28 27 27 26 27 27 28 28 29 30 31 32 32 33 35 35 36 36 37 38 39 40 41 42 42 43 44 45 46 47 48 49 50 50 51 52 52 54 55 56 57 58 59 59 59 60 60 61 62 62 63 64
35 35 35 36 36 35 35 35 35 34 35 35 35 35 34 33 32 32 32 32 32 32 31 31 31 31 30 30 29 29 28 29 29 29 29 28 28 28 29 29 30 30 31 32 33 34 35 35 36 37 37 37 38 38 39 40 40 41 42 43 44 44 45 46 47 48 49 49 50 51 52 53 54 56 57 58 58 59 59 60 60 61 62 63 63
35 35 35 36 36 36 36 36 36 36 36 36 36 36 36 36 35 34 33 33 33 33 32 32 32 32 32 31 31 30 30 30 31 31 30 29 29 29 30 30 31 32 33 34 34 35 36 36 37 37 37 37 38 38 38 39 39 39 40 41 43 44 45 46 47 47 48 48 49 50 51 52 53 55 56 57 58 59 59 59 60 61 61 62 62
35 35 35 35 36 36 36 37 37 37 37 37 37 37 38 38 38 37 36 35 35 34 34 33 34 34 34 33 32 32 32 32 33 33 32 31 31 30 31 31 31 32 33 34 35 36 36 37 37 37 37 37 37 38 39 39 40 40 41 42 44 45 46 47 48 48 48 48 49 50 51 51 52 53 55 56 57 58 58 59 59 60 60 60 61
35 35 35 35 35 35 35 36 38 38 38 37 37 38 38 39 39 39 39 38 37 36 35 35 35 36 36 35 34 34 33 34 34 34 34 33 32 32 32 32 32 32 33 34 35 36 36 36 36 36 37 37 38 39 40 41 41 42 43 44 45 46 47 48 49 50 50 50 50 50 51 52 53 54 55 56 56 57 57 58 58 58 59 59 60
34 34 35 35 34 34 34 35 37 39 39 38 37 37 38 39 40 41 41 41 40 39 38 37 37 38 37 37 37 36 35 35 36 36 35 34 33 33 33 33 32 32 33 34 35 36 36 37 37 37 38 38 39 40 41 42 43 44 45 46 46 47 48 50 50 51 51 52 52 53 53 53 54 55 56 57 58 58 58 58 58 59 59 59 60
33 34 35 35 34 34 34 35 37 38 40 40 39 37 37 38 40 41 41 42 42 42 41 40 40 39 39 39 39 39 38 37 38 38 37 36 35 34 34 34 34 34 34 35 36 37 38 38 38 39 39 40 41 42 42 43 44 45 46 46 47 48 49 50 51 52 53 54 55 56 56 56 57 57 58 59 60 60 60 60 60 60 60 61 61
34 34 35 35 35 35 35 36 37 38 40 41 41 39 37 37 39 40 41 41 42 43 43 43 43 42 42 42 42 41 40 39 40 40 39 38 37 36 36 35 34 35 35 36 37 38 40 40 40 40 41 42 43 43 44 45 45 46 46 46 47 49 49 50 51 52 54 55 57 58 59 60 60 61 62 62 62 62 62 62 61 61 62 62 62
36 36 36 36 36 36 36 36 37 38 40 41 42 41 40 38 38 39 40 41 42 43 43 44 45 45 44 44 43 43 42 42 42 41 41 40 39 39 38 36 36 36 36 37 38 39 41 41 41 41 42 44 44 45 45 46 46 46 46 47 49 50 51 51 52 53 55 56 57 59 60 62 62 64 65 66 66 66 65 64 64 63 63 64 64
39 39 39 38 38 38 38 38 38 39 40 41 42 42 42 41 40 40 40 39 40 42 43 44 46 47 47 45 45 44 44 43 43 42 42 42 41 41 40 39 38 38 38 38 39 40 42 42 41 42 42 44 45 46 46 46 46 47 47 49 51 52 52 53 54 55 56 57 58 59 61 62 64 65 66 67 68 68 67 66 66 66 66 67 67
41 41 41 41 42 42 41 41 41 41 41 42 42 43 43 43 42 41 40 39 39 41 43 44 45 47 49 48 46 46 46 45 43 42 42 42 42 42 42 41 41 41 40 40 41 42 42 42 42 42 43 44 45 46 47 47 47 47 49 51 52 53 54 55 55 56 57 59 59 60 62 63 64 66 66 67 68 69 69 68 68 69 69 70 70
42 42 42 44 45 46 46 45 44 44 43 44 44 44 44 43 43 43 42 39 38 39 42 44 45 47 50 50 48 47 47 46 44 42 42 42 41 41 42 42 43 43 43 43 43 44 44 44 44 44 43 44 45 46 47 47 48 49 50 52 53 54 55 55 56 58 59 59 60 61 62 64 65 66 66 68 69 69 69 69 70 71 71 71 71
44 44 44 46 48 50 51 50 49 47 46 46 45 45 45 45 44 45 43 40 39 39 40 43 46 48 51 51 49 48 47 46 44 42 42 42 41 41 42 42 44 44 44 45 45 45 45 45 45 44 43 44 45 46 47 48 49 51 52 53 54 55 55 56 57 59 59 60 61 62 63 64 65 66 67 69 70 70 71 71 72 73 73 72 72
45 45 46 47 50 52 53 53 52 51 50 48 47 46 46 46 47 47 45 41 39 38 39 42 46 49 51 51 50 48 47 47 45 42 42 42 42 42 42 43 43 43 43 44 44 44 44 44 45 44 44 45 46 46 47 49 50 52 54 55 55 55 56 57 58 59 60 60 61 62 63 65 66 66 68 70 71 71 72 73 74 74 74 74 74
46 46 47 49 51 53 54 54 54 53 52 51 50 49 48 48 49 49 47 42 39 37 39 42 44 47 50 51 50 48 46 46 45 42 42 42 42 42 43 43 43 42 42 43 43 43 43 44 45 45 45 46 47 48 49 50 52 54 55 56 56 56 57 58 59 60 60 61 62 63 64 65 67 68 70 71 72 73 74 75 75 76 76 76 76
47 47 50 51 52 53 54 55 54 54 54 54 54 52 51 50 50 50 47 43 39 37 38 40 40 42 47 49 48 47 45 44 44 42 42 43 43 43 44 43 43 42 42 42 42 42 43 45 46 47 47 47 48 49 51 52 54 55 56 57 57 58 58 59 59 60 62 63 63 64 65 66 68 70 71 72 74 74 75 76 77 78 78 78 78
48 51 52 53 54 54 55 55 55 55 55 56 56 55 53 51 51 50 46 43 40 38 37 37 37 41 45 46 45 45 44 43 43 42 42 43 44 45 45 44 43 42 41 40 41 43 45 46 48 48 49 49 50 51 52 54 55 57 58 58 59 59 60 60 60 62 63 64 65 65 67 68 70 71 72 73 75 76 77 78 79 80 80 80 80
50 52 53 54 55 55 55 56 56 56 57 58 58 57 54 52 51 50 46 42 40 37 35 34 35 38 41 42 42 43 43 42 42 42 43 44 45 46 46 45 43 42 41 41 42 44 47 48 50 50 51 51 52 53 55 56 57 58 59 59 60 61 61 61 62 63 65 65 66 67 68 70 71 72 73 74 76 77 79 80 81 81 81 81 82
52 53 55 56 57 58 58 58 58 58 59 59 60 58 54 52 51 49 45 42 38 34 32 32 33 33 35 38 40 40 41 41 42 42 44 45 46 47 47 45 44 43 42 42 43 46 49 51 52 53 53 54 55 55 57 58 59 59 60 61 61 62 62 63 64 65 66 66 67 68 69 71 72 73 74 75 77 78 80 81 82 82 83 83 83
54 55 57 58 59 60 60 60 60 60 61 61 61 59 55 52 51 49 45 42 37 33 31 31 31 32 33 36 38 39 41 42 42 43 45 46 48 48 47 46 45 45 44 45 46 48 50 52 54 55 56 56 57 57 58 59 60 60 61 62 62 62 63 64 66 66 67 67 67 68 69 70 72 73 75 76 77 79 80 81 82 83 84 84 83
54 57 59 60 62 63 63 63 62 62 62 62 62 60 56 52 50 48 45 42 38 33 31 31 31 32 33 34 37 39 41 42 43 45 47 48 49 48 46 45 45 46 47 47 49 50 52 54 56 57 57 57 57 58 59 60 61 62 62 62 62 63 64 66 67 68 69 68 68 69 70 71 73 75 76 77 78 80 81 82 83 83 84 84 83
55 60 63 65 66 67 66 65 64 63 63 63 62 60 56 52 50 48 46 44 40 36 33 32 33 32 33 34 35 37 39 41 43 46 48 50 50 49 47 46 46 47 48 49 50 52 54 55 57 57 57 57 58 58 60 61 62 63 63 63 63 64 66 68 69 69 69 69 69 70 71 73 75 76 77 78 79 80 81 82 83 83 83 84 83
58 64 69 72 72 70 69 67 65 63 63 63 62 59 54 51 49 48 47 46 43 40 36 34 32 32 33 33 35 36 39 41 44 47 50 51 51 50 49 49 48 49 50 50 51 53 54 55 56 56 57 58 58 60 62 63 63 63 63 64 65 67 68 69 70 70 70 70 71 71 72 74 76 77 78 79 80 81 82 82 83 83 83 83 83
63 67 73 77 76 73 70 68 66 63 63 63 61 56 52 50 49 48 49 48 45 42 38 34 32 31 32 33 35 38 40 42 45 48 50 51 51 51 50 50 50 51 51 52 53 53 54 55 55 56 57 58 60 62 63 64 64 64 65 66 68 69 70 71 71 71 71 71 72 72 74 75 76 78 79 80 80 81 82 83 83 83 83 83 83
70 73 76 77 75 72 70 68 65 63 62 60 57 53 50 49 49 49 49 48 46 42 37 34 32 31 32 34 37 39 41 43 46 49 51 52 51 50 50 50 51 51 52 53 54 54 54 55 55 56 58 59 61 63 64 64 64 66 67 69 70 72 72 73 73 73 73 73 73 73 74 75 76 77 79 79 80 81 82 83 83 83 84 84 84
77 77 76 75 74 73 71 67 64 62 59 56 52 50 49 49 49 49 48 47 43 39 35 32 31 31 33 35 37 39 41 43 46 49 52 53 52 51 50 51 51 52 53 54 54 54 55 55 56 58 59 60 62 63 63 64 66 67 69 71 73 74 74 74 74 73 72 73 73 74 74 75 76 77 78 79 80 81 82 83 83 84 84 84 84
77 74 73 74 74 73 69 65 62 58 54 52 50 49 49 49 49 48 47 44 40 36 33 31 31 32 33 35 37 39 41 42 44 47 49 51 51 50 50 50 51 52 53 54 55 55 56 57 58 58 59 61 62 63 64 66 67 69 71 72 73 75 75 75 73 72 72 73 74 74 75 76 77 77 78 79 80 81 82 83 83 84 84 84 84
73 70 72 74 74 70 65 61 58 54 51 50 50 50 50 50 50 48 44 40 37 35 34 33 32 33 34 36 38 40 41 42 43 44 45 47 48 49 49 49 51 52 53 54 56 56 57 58 59 59 60 62 63 65 67 68 70 71 73 74 74 75 75 73 72 72 73 74 75 76 77 78 79 79 80 80 81 82 83 83 84 84 84 84 84
71 72 74 76 72 65 61 58 54 51 50 51 51 51 51 51 50 47 42 38 37 36 36 35 34 35 36 38 39 40 41 43 43 43 44 45 46 47 48 49 51 53 54 56 57 58 60 60 60 59 61 63 65 68 70 71 73 74 76 76 76 75 74 72 72 73 75 76 77 78 79 80 80 81 81 82 82 83 83 84 84 84 84 84 84
73 74 75 73 66 61 59 56 51 49 50 52 52 53 52 51 49 46 42 38 37 38 37 36 36 38 39 40 41 41 42 43 43 43 44 45 46 47 49 50 52 54 55 57 58 60 62 61 60 60 62 65 68 70 71 73 75 76 77 78 77 76 74 74 75 76 77 78 79 80 81 81 82 82 83 83 83 84 84 84 84 84 84 84 85
74 74 71 66 61 58 55 51 48 48 51 53 53 54 53 51 48 45 41 39 39 39 38 37 38 40 41 41 42 43 44 43 44 44 45 46 47 49 51 53 54 55 56 58 58 59 60 60 61 63 65 67 68 70 72 74 76 77 78 79 78 76 76 76 77 78 80 81 82 82 83 83 83 83 84 84 84 84 84 84 84 83 84 84 85
71 69 65 61 58 55 50 47 48 50 52 53 53 52 50 48 47 44 42 41 41 40 38 39 41 43 43 44 45 45 44 45 46 48 49 49 50 52 53 54 55 57 58 59 58 58 59 61 63 65 67 68 69 71 72 74 76 77 78 78 78 77 78 78 80 81 83 84 84 84 84 84 84 84 85 85 85 85 84 84 84 83 84 85 86
66 64 61 58 55 51 48 48 50 52 53 53 51 48 46 46 47 46 44 43 42 42 41 43 46 46 46 46 47 46 46 47 49 51 51 52 52 53 54 56 57 59 60 60 59 60 62 64 65 66 68 69 71 72 73 75 76 77 78 78 78 79 79 81 83 84 85 85 85 84 85 85 85 85 85 85 85 85 84 84 84 84 84 85 86
64 62 59 55 51 49 50 51 53 54 54 52 49 47 46 46 47 47 46 45 44 45 47 48 49 49 48 49 49 49 48 50 51 51 51 52 54 55 56 57 59 60 61 62 63 64 65 65 66 68 69 70 72 73 75 76 77 78 78 78 79 80 81 83 84 85 85 85 85 85 85 85 85 86 85 85 85 85 84 84 84 84 85 85 85
62 59 55 51 49 50 52 53 55 55 54 50 47 46 46 47 48 49 49 48 48 49 50 50 51 51 51 51 52 51 51 52 52 52 53 55 56 57 57 58 60 62 63 64 65 66 67 67 68 69 71 72 74 75 77 77 78 78 78 79 80 81 83 84 84 84 85 86 86 87 86 86 86 86 85 85 85 85 85 85 85 85 85 85 85
59 55 52 50 51 53 55 55 56 55 53 49 47 46 47 48 49 50 50 49 50 50 51 51 52 52 53 54 54 54 54 54 54 54 56 57 58 59 60 61 62 64 65 66 67 67 68 68 70 71 73 75 77 78 78 78 78 78 79 79 80 81 82 83 83 84 86 87 88 88 87 87 86 86 85 85 85 85 85 84 84 85 85 84 83
55 52 51 51 54 55 56 57 58 57 53 49 47 47 48 49 51 52 52 50 49 50 51 52 53 54 55 55 55 55 55 56 57 58 59 60 61 62 64 65 66 67 68 68 68 68 69 70 72 74 76 78 79 79 79 79 78 78 79 79 80 81 82 83 85 87 88 89 88 88 88 87 87 86 86 85 85 85 84 84 84 84 84 83 81
51 50 50 52 54 55 56 57 58 58 54 49 47 48 50 51 52 54 54 52 51 51 52 53 54 55 56 56 55 55 57 59 60 61 62 63 63 64 66 67 68 69 70 70 70 71 72 73 75 77 78 79 79 79 79 78 78 79 79 80 81 83 85 86 88 89 90 90 89 88 88 87 87 86 86 85 85 85 84 83 83 83 82 80 79
50 50 51 52 53 55 56 57 57 55 52 48 48 49 51 52 54 56 56 55 53 53 52 53 55 56 57 57 57 58 59 61 62 62 63 63 63 64 66 68 69 70 71 71 72 73 74 75 77 78 78 79 79 78 78 78 78 79 81 83 85 87 88 90 91 91 91 90 89 88 88 87 87 86 86 85 85 84 84 83 82 81 79 77 76
51 51 51 52 53 55 57 57 54 51 48 48 49 50 53 55 56 57 57 57 55 53 53 54 56 57 58 59 60 61 63 63 63 63 63 63 63 64 66 68 70 71 71 72 73 74 75 76 77 77 78 78 78 78 78 78 79 82 84 86 88 90 91 93 94 93 92 91 89 88 87 87 86 86 85 85 84 84 83 82 80 78 77 75 75
51 51 51 51 53 55 56 55 52 49 49 50 52 54 56 57 58 59 60 60 58 56 55 56 58 59 60 61 62 63 64 64 64 63 63 62 63 65 67 69 70 71 73 74 75 75 76 76 77 77 78 78 78 78 79 80 82 84 86 88 90 93 95 96 96 94 92 91 89 88 87 86 85 85 84 84 83 82 81 80 78 76 75 75 74
50 51 51 52 54 55 56 55 53 54 55 56 57 58 60 60 61 62 62 61 60 59 59 60 61 61 61 61 62 63 63 63 63 62 61 62 63 65 68 70 71 73 74 75 75 75 76 76 77 77 77 78 78 78 80 81 83 85 88 90 92 95 96 97 95 93 92 90 89 88 86 85 84 84 83 83 82 81 79 78 76 75 74 74 73
51 52 53 54 55 55 55 55 56 58 59 60 60 61 62 63 63 62 62 61 61 62 63 63 63 63 62 62 62 63 63 62 61 61 61 62 64 66 69 71 73 74 74 75 75 75 76 76 76 76 77 77 78 79 81 83 85 87 89 92 94 95 96 96 94 93 91 90 89 87 86 85 83 83 82 81 80 79 77 76 75 74 73 73 72
52 53 54 55 56 56 57 58 59 60 61 61 62 64 65 65 64 62 61 61 61 62 64 65 65 65 64 64 64 64 63 63 63 62 62 63 66 68 70 72 73 74 74 75 75 75 76 76 76 76 77 78 79 81 83 85 87 89 91 93 95 96 95 95 94 92 91 89 88 86 85 84 82 81 80 79 78 77 76 74 73 73 72 71 71
53 54 55 56 57 58 59 60 61 62 64 65 67 69 70 69 67 64 62 62 62 62 63 65 67 67 67 67 67 67 67 67 66 65 65 66 68 70 71 73 74 74 75 75 75 75 75 76 76 77 78 80 81 83 85 87 90 92 94 95 96 96 95 94 93 91 90 88 87 85 84 82 81 79 78 77 75 74 74 73 72 72 71 70 69
54 54 56 57 59 60 62 63 64 66 67 69 70 72 72 72 70 67 65 64 63 62 63 65 68 69 70 71 71 71 70 70 69 69 69 70 71 72 73 74 75 75 75 75 75 75 75 75 76 78 80 81 83 86 89 91 94 96 97 97 96 95 94 93 91 90 89 87 85 83 82 80 78 76 75 74 74 73 72 72 72 71 70 69 67
55 57 58 59 61 63 65 65 66 67 69 70 71 72 72 71 70 68 66 64 63 63 65 67 69 71 73 74 74 73 72 72 72 73 73 73 73 74 75 75 76 75 75 75 74 74 75 76 78 80 82 84 87 90 93 95 97 98 98 97 96 95 93 91 90 88 87 85 83 81 79 77 75 74 74 73 73 72 71 71 70 69 68 66 65
Wind_Direction
2 1 359 357 356 354 353 351 350 348 347 345 343 342 340 339 337 335 334 333 332 331 331 330 330 329 329 327 325 323 322 320 318 317 316 314 312 310 308 306 305 304 303 302 301 300 300 299 299 297 297 296 296 296 296 296 296 297 297 297 297 296 296 296 296 295 295 295 295 294 293 293 292 292 291 291 290 290 289 289 289 288 288 288 288
358 358 357 356 355 353 351 349 348 346 344 342 340 338 337 335 334 333 331 330 328 327 325 324 323 323 323 322 321 320 318 316 314 314 313 312 309 307 305 304 302 301 300 299 298 297 297 297 296 296 295 295 295 295 294 294 293 293 293 293 293 293 293 293 293 292 293 294 294 293 293 292 292 291 291 290 290 289 289 289 288 288 288 288 288
353 353 353 353 352 351 349 347 345 343 341 339 337 335 334 332 331 329 329 328 326 324 323 321 319 318 317 316 315 314 312 311 310 309 308 307 304 302 301 300 299 298 297 296 295 295 295 295 295 294 294 294 295 295 294 294 294 293 293 293 293 292 292 292 292 291 291 291 292 292 291 291 290 290 289 289 288 288 288 287 287 287 287 287 287
350 349 349 349 349 348 346 344 342 339 337 336 334 333 331 329 327 326 325 324 324 322 321 319 317 315 314 312 310 308 306 305 304 303 303 301 299 297 296 295 294 294 294 293 293 293 294 294 295 295 295 295 296 297 297 297 297 297 296 296 296 296 295 295 294 293 293 292 291 291 291 291 290 290 289 289 288 288 288 288 288 288 287 287 287
346 346 345 345 345 345 344 342 340 338 335 333 331 329 327 325 324 322 321 320 319 319 318 316 315 313 312 310 307 305 303 301 299 298 297 296 295 293 291 290 290 290 290 290 291 291 291 292 294 295 296 296 297 298 298 299 299 300 300 300 299 299 299 298 297 297 296 295 294 294 293 292 292 291 290 290 290 289 289 289 288 288 288 288 288
343 344 343 342 342 342 342 340 339 337 335 332 329 327 324 322 321 319 317 316 315 314 314 313 311 310 309 308 306 303 301 299 297 296 295 293 291 290 288 287 287 287 287 288 289 289 290 291 293 295 296 296 297 297 298 299 300 301 302 302 303 303 302 302 301 300 300 299 298 297 296 295 294 293 292 292 291 291 290 290 290 289 289 289 288
341 341 341 341 340 339 338 337 336 336 335 333 330 327 323 320 318 317 314 312 311 309 309 308 307 306 305 305 303 301 300 298 297 295 294 292 290 288 287 286 285 284 285 286 287 288 289 290 292 294 295 296 297 297 298 299 300 302 303 303 304 305 305 305 305 305 304 304 302 300 299 298 297 295 294 294 293 292 292 291 291 290 289 289 289
341 340 339 339 339 337 336 334 334 334 333 332 330 328 324 320 316 315 313 311 309 306 304 303 302 301 301 301 300 299 297 296 295 295 294 292 290 288 287 285 284 283 284 284 285 286 287 289 291 292 293 294 296 297 298 299 301 302 303 304 304 304 305 306 306 306 306 306 305 303 302 301 299 298 297 296 295 294 294 293 292 291 290 290 289
339 338 337 337 338 337 335 333 331 331 331 331 329 328 325 321 317 314 312 310 307 304 301 299 297 296 297 296 295 294 294 293 293 293 293 292 291 289 287 285 284 283 283 283 284 285 286 288 289 290 291 292 294 296 297 299 299 300 301 302 303 303 303 304 304 305 305 306 305 305 305 304 303 301 300 299 298 298 297 295 294 293 292 291 291
336 335 334 335 336 335 333 331 330 329 329 329 329 327 325 323 319 316 313 311 308 304 300 296 294 293 292 292 291 290 289 290 290 291 291 291 291 290 288 286 285 284 283 283 284 285 286 287 288 289 291 292 293 295 296 297 297 298 299 300 301 301 302 302 303 303 304 304 304 304 304 304 304 303 302 301 300 300 299 297 296 295 294 293 293
332 331 332 333 334 333 331 330 329 327 327 327 327 327 325 323 321 318 316 313 310 306 301 296 292 291 289 288 287 286 286 286 287 287 288 289 289 288 287 286 286 285 284 284 284 285 287 288 289 290 292 293 294 295 296 296 296 297 297 298 299 300 300 301 302 303 303 303 303 303 303 303 303 303 303 302 302 300 299 298 297 296 296 295 294
328 327 329 331 331 330 330 329 328 326 325 325 325 326 326 323 320 319 318 315 312 308 303 298 294 290 288 286 285 284 283 283 283 285 286 287 287 286 285 284 284 284 284 284 284 286 287 288 290 291 293 294 294 295 295 295 295 296 297 298 298 299 300 301 302 302 302 302 302 302 302 302 302 302 302 303 303 302 299 298 297 297 296 296 295
325 324 327 329 328 327 327 327 326 324 323 323 323 324 324 322 320 318 317 316 314 310 306 303 298 293 290 287 285 283 282 281 282 283 284 284 285 284 284 283 282 282 282 282 283 284 285 287 289 291 292 293 294 294 294 293 294 295 296 297 298 299 300 301 301 301 301 301 301 301 301 301 300 301 301 302 303 302 301 299 298 297 297 297 297
323 323 326 327 326 324 325 325 324 323 321 320 321 321 321 321 320 317 315 315 313 310 307 305 302 299 295 291 287 284 281 281 281 282 283 283 283 284 283 282 282 281 281 281 281 282 283 285 287 288 290 292 293 293 292 291 292 293 295 296 297 298 299 300 300 300 300 300 300 300 300 300 299 299 299 300 301 301 300 299 299 298 298 298 298
322 325 326 326 323 322 323 323 322 321 319 318 319 319 319 320 319 317 315 314 312 309 306 304 302 301 298 295 291 286 282 281 281 282 282 283 284 284 284 283 282 281 280 280 280 281 282 283 285 287 289 292 292 291 291 290 291 293 295 296 297 298 299 300 299 299 300 300 300 300 299 299 298 298 297 298 299 299 299 299 298 298 298 298 298
322 325 325 324 322 321 321 321 320 319 318 318 318 317 318 319 318 316 314 313 310 306 304 302 301 300 298 295 292 288 284 283 282 283 283 284 285 286 286 284 283 282 281 281 281 281 282 283 284 286 289 291 291 291 291 292 292 294 295 296 297 298 299 299 299 299 299 300 300 299 298 298 297 297 296 297 298 298 297 298 298 298 298 298 298
321 323 323 322 321 321 320 320 319 318 318 317 317 316 317 318 318 316 314 311 307 303 301 300 300 299 296 295 293 290 286 284 284 285 285 287 288 289 289 287 286 284 282 282 282 282 283 284 285 286 288 290 292 293 294 294 295 296 296 296 297 298 299 299 299 299 300 300 299 298 297 297 297 296 296 296 297 297 297 298 298 298 298 298 298
321 322 321 321 320 320 319 319 319 318 317 316 315 315 316 318 318 317 314 310 305 300 298 299 300 299 297 296 295 293 289 286 286 287 287 288 290 290 290 290 288 286 285 283 283 283 283 284 285 286 288 291 293 295 295 296 297 297 297 297 297 298 299 299 300 300 301 300 299 299 298 298 297 296 296 296 297 297 298 298 299 299 299 299 298
321 321 320 319 319 318 318 319 318 317 317 316 315 315 316 317 318 318 316 311 305 300 297 298 299 299 299 298 297 296 292 287 286 288 289 289 291 291 291 290 290 289 287 285 284 284 283 284 285 287 290 293 294 295 296 297 297 298 297 297 297 299 300 301 301 302 302 301 301 300 299 298 298 297 297 297 298 298 299 300 300 300 300 299 298
321 320 319 318 318 317 317 317 317 317 317 316 315 315 315 316 318 318 316 311 307 301 295 294 296 299 302 302 299 297 295 290 288 289 290 290 291 292 292 291 290 289 288 287 286 285 284 285 286 288 290 293 294 295 295 296 297 297 297 297 298 299 301 302 303 303 303 303 303 301 300 299 298 298 298 298 299 299 300 301 301 301 300 299 298
321 320 319 318 318 317 316 316 317 317 317 315 315 314 314 315 317 317 314 310 308 303 296 294 297 302 305 306 303 300 297 293 290 290 292 293 293 293 293 291 289 289 289 289 288 287 286 287 288 288 290 292 294 294 294 295 296 296 297 298 298 300 302 303 303 304 304 304 303 302 300 299 299 299 299 299 299 300 300 301 301 300 300 299 298
321 321 320 318 317 316 315 315 315 315 316 316 315 314 313 314 315 315 313 310 309 305 299 297 300 304 307 309 307 303 299 294 291 292 294 294 294 293 292 290 289 289 291 291 289 287 287 288 288 289 290 292 293 293 294 295 296 297 298 298 299 301 302 303 304 304 305 304 303 302 300 300 299 299 299 299 299 299 300 300 300 300 299 299 298
321 321 320 318 317 315 314 313 313 314 315 315 315 314 312 312 314 314 311 309 308 305 301 299 299 301 305 307 305 301 297 293 291 294 296 296 296 296 293 290 288 289 292 291 288 287 287 287 288 289 291 292 292 293 294 295 297 298 299 299 300 302 303 304 305 305 305 304 302 301 300 299 299 299 299 299 299 299 300 300 300 300 299 299 298
320 320 320 318 317 315 313 312 311 312 313 315 315 314 312 312 312 311 309 307 305 303 301 299 300 300 301 302 300 297 294 291 291 295 298 299 299 298 294 290 288 289 291 291 289 288 288 288 289 289 290 292 293 294 296 297 298 300 299 299 301 303 304 305 306 306 305 304 302 300 300 299 299 299 299 299 299 300 300 300 300 300 300 299 299
321 322 321 320 318 316 313 310 309 309 311 313 314 313 312 311 311 309 306 303 301 300 299 299 300 300 298 297 296 294 294 293 292 294 298 299 300 298 294 290 289 291 292 293 292 290 290 289 289 290 292 294 295 296 297 298 299 299 299 300 303 305 306 307 307 307 306 304 302 301 300 299 299 300 300 300 300 300 300 300 300 300 300 299 299
320 322 322 321 319 316 313 310 308 308 310 311 313 312 312 311 310 308 304 299 297 297 298 299 301 302 300 300 301 299 298 296 292 293 296 299 300 299 296 294 294 294 294 294 293 292 292 292 293 294 295 296 297 298 298 299 299 300 301 303 306 307 308 308 308 307 306 305 304 302 301 300 300 300 301 301 301 300 300 300 300 300 300 300 300
317 319 320 320 318 316 312 309 307 308 309 310 312 312 311 311 310 307 302 298 295 296 298 300 302 305 306 307 306 303 299 295 292 294 298 301 301 299 298 297 297 296 295 295 294 294 294 295 295 296 297 298 299 299 300 300 301 302 304 306 308 309 309 308 308 308 307 306 305 303 302 301 301 301 302 301 301 301 301 301 300 300 300 300 300
315 315 316 317 316 313 310 308 307 308 309 311 312 312 311 311 309 305 302 298 295 295 299 302 303 306 309 309 308 305 302 298 297 298 300 300 300 299 298 297 297 297 296 296 295 294 294 294 296 297 298 299 300 300 301 302 304 305 307 309 309 309 309 308 308 308 308 307 306 304 303 303 303 302 302 302 302 301 301 301 301 300 300 300 300
314 314 315 315 313 310 308 309 309 310 311 312 312 312 311 310 309 306 303 300 297 297 302 304 304 307 310 311 310 310 308 304 301 300 299 299 299 299 297 296 296 295 295 295 294 294 294 295 297 298 299 300 301 302 303 304 306 308 310 310 310 309 309 309 309 309 308 307 306 306 305 305 304 304 303 303 302 302 301 301 301 301 300 300 300
315 316 315 313 311 309 309 310 311 312 313 313 313 312 311 311 311 308 304 301 300 301 303 304 304 308 311 311 311 311 309 307 305 303 302 301 301 300 298 297 296 296 296 295 295 295 296 296 297 298 299 301 302 303 304 306 308 310 310 310 310 309 308 308 308 308 308 308 307 307 306 306 306 305 305 304 303 302 302 301 301 301 301 301 301
316 316 313 310 309 309 310 311 313 314 313 313 314 314 314 314 313 311 307 304 302 302 301 301 303 307 309 310 310 311 310 310 309 306 304 302 301 301 300 300 299 299 298 297 296 296 296 297 298 300 301 303 303 303 305 307 308 309 309 310 309 308 307 307 308 308 308 308 308 308 307 307 306 306 305 305 304 303 302 301 301 301 301 301 301
313 312 309 309 310 311 311 312 313 313 314 315 317 318 319 318 316 313 310 305 301 299 298 298 301 305 307 309 310 310 310 309 308 306 304 302 302 302 302 302 300 299 299 297 297 297 298 299 301 302 303 303 304 305 306 307 308 308 308 308 307 307 307 307 308 308 308 309 308 308 307 307 306 306 306 305 304 303 302 301 301 301 300 301 301
309 308 307 308 310 311 311 311 312 313 315 318 320 321 322 320 317 313 309 304 299 297 296 297 301 305 307 308 309 309 308 307 307 306 306 305 304 303 303 302 301 301 301 300 300 300 301 302 302 303 304 305 307 308 308 308 308 308 308 308 307 307 307 307 307 308 308 308 308 308 307 307 306 306 306 305 304 303 302 301 301 300 300 301 301
307 307 308 308 309 310 311 311 312 314 316 317 319 320 320 318 315 311 306 301 298 298 298 300 304 306 306 306 307 307 307 307 306 306 307 307 306 305 304 304 304 304 306 307 306 305 304 302 302 304 307 309 310 310 310 309 309 308 308 308 307 307 306 307 307 308 308 308 308 308 307 307 307 306 306 305 304 303 302 301 301 300 300 300 300
308 309 309 309 309 310 310 310 312 314 315 315 317 317 317 315 312 308 304 300 298 299 302 303 305 305 305 305 307 307 308 308 307 307 307 307 307 306 306 306 307 308 310 311 310 308 306 305 306 308 310 311 311 311 311 311 310 309 308 308 307 306 306 306 307 308 309 309 309 308 308 308 307 307 306 305 304 303 302 301 301 300 300 300 300
309 309 309 310 310 311 310 311 313 314 313 314 315 316 315 313 311 308 304 300 298 300 303 305 305 305 305 306 306 307 308 309 309 309 308 307 308 308 308 308 309 310 311 312 311 309 308 308 309 310 311 311 312 312 312 311 311 309 308 307 306 305 305 306 307 309 310 310 309 309 309 308 307 307 306 305 304 302 301 301 300 300 300 300 300
310 309 310 310 311 311 311 312 314 314 313 314 314 314 314 313 311 308 304 301 300 302 305 306 306 306 305 305 305 306 307 308 308 308 307 307 307 308 308 309 310 311 312 312 311 310 309 309 310 310 311 311 312 312 312 311 310 309 307 306 305 305 305 307 308 310 310 310 310 310 309 308 307 306 305 304 303 302 301 300 300 300 300 300 300
309 309 310 310 310 310 311 313 314 314 313 313 312 313 314 314 313 311 307 303 302 303 304 305 305 305 304 304 305 305 306 306 305 305 304 305 306 307 308 309 310 311 311 310 310 309 309 309 309 309 310 310 311 311 311 310 310 308 307 306 305 305 306 308 309 310 311 311 311 311 310 308 307 306 305 304 303 301 301 300 300 300 300 300 300
308 309 309 308 309 310 312 313 313 313 312 310 309 311 314 315 315 313 308 302 300 301 301 301 302 303 304 304 304 304 303 303 303 303 303 304 305 306 308 309 309 309 309 308 308 308 308 308 308 308 309 310 310 310 310 309 309 308 307 306 306 306 307 308 309 310 311 312 312 311 310 308 307 306 305 303 302 301 300 300 300 300 301 301 301
306 307 307 308 310 311 312 312 312 312 310 307 306 310 313 314 314 313 308 302 299 300 300 300 301 303 303 303 303 302 302 302 302 302 303 303 304 305 306 307 307 307 307 307 307 307 307 307 308 309 309 310 310 310 309 308 308 307 307 306 306 307 308 309 310 311 312 312 312 310 309 308 307 306 304 303 301 300 300 300 300 301 301 301 302
305 306 307 309 311 312 313 313 313 311 308 304 305 309 312 312 313 312 309 304 300 300 300 300 302 303 303 302 303 303 303 303 303 303 302 303 304 305 305 306 306 307 307 307 307 307 307 308 309 309 310 310 310 309 308 308 307 307 307 307 307 308 309 310 311 311 311 311 310 309 308 307 306 305 304 302 301 300 300 300 301 301 302 302 302
305 306 308 310 312 314 315 315 314 312 308 305 305 308 310 311 311 312 310 306 303 301 301 301 303 303 303 303 304 304 304 303 303 302 301 302 303 304 305 306 307 307 307 308 308 308 308 309 310 311 311 310 309 309 308 308 307 307 307 308 309 310 311 311 311 311 311 310 309 308 307 307 306 304 303 301 301 300 300 301 301 302 302 302 303
305 306 307 309 312 314 315 315 314 312 308 304 305 307 309 311 312 312 310 306 303 301 302 303 304 304 304 303 303 304 304 304 303 301 301 301 302 304 306 307 307 308 308 308 309 309 310 311 311 311 310 310 309 309 308 308 308 309 310 311 312 312 312 312 311 310 310 309 308 307 307 306 305 303 302 301 301 301 301 302 302 302 302 303 303
305 305 306 309 312 314 314 314 314 312 307 305 306 308 310 311 311 310 309 307 304 301 301 302 303 303 302 303 303 304 305 304 303 301 301 301 303 305 307 307 307 307 308 308 309 310 310 311 311 310 310 309 309 308 308 309 310 311 313 313 313 313 313 312 311 310 309 308 307 307 306 305 304 303 302 301 301 301 302 302 302 302 302 303 303
304 305 308 310 312 312 312 312 312 311 310 308 308 309 309 309 308 307 307 307 305 302 301 301 301 301 301 302 303 304 304 303 302 300 301 302 304 306 306 306 306 307 307 308 309 309 310 310 310 310 310 309 309 309 310 311 312 313 313 314 314 314 313 312 310 309 308 307 307 306 305 304 303 302 302 301 301 302 302 303 302 302 302 303 303
304 306 309 310 310 310 310 309 309 310 312 312 311 311 310 309 308 306 306 305 305 303 302 300 300 299 299 300 302 302 302 301 300 300 301 303 304 304 305 305 305 306 307 307 308 309 310 310 310 310 309 309 309 310 311 312 312 313 313 313 313 312 311 310 309 308 307 307 306 306 305 304 303 302 302 302 302 302 302 302 302 302 302 303 303
306 308 309 310 310 310 310 309 309 310 311 311 310 309 308 306 306 305 304 304 305 306 304 301 300 299 299 300 301 302 301 300 301 302 303 303 302 303 304 304 305 306 306 307 308 309 309 309 309 309 309 309 310 310 311 311 312 312 312 312 311 311 310 309 308 307 307 306 306 305 304 304 303 303 302 302 302 302 302 302 302 302 303 303 303
307 309 310 310 310 310 309 309 308 308 308 307 306 305 305 304 304 303 303 304 306 307 305 303 301 301 301 302 303 303 302 302 303 304 303 302 302 303 304 304 305 306 306 307 308 308 308 308 309 309 309 310 310 311 311 311 311 311 311 311 310 310 309 309 308 307 307 306 306 305 304 304 303 303 303 303 303 303 302 302 302 303 303 303 302
308 309 310 310 309 308 308 307 306 305 305 305 305 306 305 305 305 304 304 305 307 308 307 306 305 305 305 305 305 304 304 303 303 303 303 303 303 303 304 304 305 306 306 307 307 308 308 308 309 309 310 310 311 311 311 312 312 311 311 310 310 309 309 308 308 307 306 306 305 305 304 304 304 304 303 303 303 302 302 302 302 303 302 302 302
308 308 307 306 306 306 305 304 304 305 305 305 306 306 306 306 305 304 304 305 307 309 309 309 309 308 307 306 305 304 304 303 302 302 302 303 303 303 303 304 305 306 307 307 307 308 308 308 309 309 310 311 311 312 312 312 311 311 310 310 309 309 308 308 307 307 306 305 305 304 304 304 304 304 304 303 303 303 303 303 303 303 302 302 302
307 306 304 304 304 304 304 304 304 305 305 306 307 307 307 306 305 305 305 306 308 309 309 309 309 308 307 306 305 304 303 302 302 302 303 303 302 302 303 305 306 306 306 306 307 307 307 308 309 310 311 311 312 312 312 311 311 310 310 309 309 308 308 307 307 306 306 305 305 305 305 305 305 305 304 303 303 303 303 303 303 302 302 302 301
Height
5720 5718 5715 5713 5711 5709 5707 5705 5702 5700 5699 5696 5694 5693 5691 5689 5686 5684 5682 5680 5678 5676 5674 5671 5669 5667 5665 5662 5660 5658 5656 5654 5652 5650 5648 5647 5645 5643 5641 5640 5638 5636 5635 5633 5631 5630 5628 5627 5625 5624 5622 5621 5619 5618 5616 5614 5612 5610 5608 5606 5603 5601 5599 5597 5595 5592 5588 5585 5583 5581 5579 5578 5575 5571 5570 5568 5565 5563 5562 5559 5557 5555 5553 5551 5549
5719 5717 5715 5712 5710 5708 5705 5703 5701 5698 5696 5694 5692 5690 5688 5686 5684 5682 5680 5677 5675 5673 5671 5668 5666 5664 5662 5660 5658 5655 5653 5651 5649 5647 5645 5644 5642 5640 5638 5637 5635 5633 5631 5630 5628 5626 5625 5623 5622 5620 5618 5617 5615 5614 5612 5610 5609 5606 5604 5602 5599 5597 5595 5593 5591 5589 5585 5581 5578 5575 5573 5572 5569 5565 5563 5562 5559 5557 5555 5552 5550 5548 5546 5544 5542
5718 5715 5713 5711 5709 5707 5704 5701 5699 5696 5693 5691 5689 5687 5685 5683 5681 5679 5677 5674 5672 5670 5668 5665 5663 5661 5659 5657 5654 5652 5650 5648 5645 5644 5642 5640 5638 5637 5635 5633 5631 5630 5628 5626 5624 5622 5621 5619 5617 5616 5614 5613 5611 5609 5608 5606 5604 5601 5599 5597 5595 5592 5590 5588 5585 5584 5582 5578 5574 5570 5568 5566 5563 5559 5556 5555 5553 5551 5548 5546 5544 5541 5539 5536 5534
5717 5714 5712 5709 5707 5705 5703 5700 5698 5695 5692 5689 5686 5684 5681 5679 5677 5675 5673 5671 5669 5666 5664 5662 5660 5657 5655 5653 5651 5649 5647 5644 5642 5640 5638 5637 5635 5633 5631 5629 5627 5626 5624 5622 5620 5618 5616 5614 5612 5611 5610 5608 5606 5604 5602 5600 5598 5596 5594 5591 5589 5587 5584 5582 5579 5577 5575 5573 5570 5566 5563 5560 5557 5553 5550 5548 5547 5544 5542 5539 5537 5534 5531 5529 5527
5715 5713 5710 5707 5705 5703 5701 5698 5696 5694 5691 5688 5685 5682 5679 5676 5674 5671 5669 5667 5665 5663 5661 5658 5656 5654 5651 5649 5647 5645 5643 5641 5638 5636 5635 5633 5631 5629 5627 5625 5623 5621 5619 5617 5615 5614 5612 5609 5608 5606 5605 5603 5601 5599 5597 5595 5593 5590 5588 5586 5583 5581 5578 5575 5573 5570 5568 5566 5563 5560 5557 5554 5550 5547 5543 5541 5540 5537 5535 5533 5530 5527 5524 5521 5518
5713 5711 5708 5705 5703 5700 5698 5696 5693 5691 5689 5686 5683 5680 5677 5674 5671 5668 5666 5663 5661 5659 5657 5654 5652 5650 5648 5645 5643 5641 5639 5636 5634 5632 5630 5629 5627 5625 5623 5621 5618 5616 5614 5612 5610 5609 5607 5605 5603 5601 5600 5598 5596 5594 5591 5589 5587 5585 5582 5580 5577 5575 5572 5569 5566 5564 5561 5559 5556 5553 5550 5547 5544 5540 5537 5534 5532 5530 5528 5525 5523 5520 5516 5514 5511
5711 5709 5706 5703 5700 5698 5695 5692 5690 5688 5685 5683 5680 5678 5675 5672 5668 5666 5663 5660 5658 5655 5653 5650 5648 5645 5643 5641 5639 5637 5635 5632 5629 5627 5625 5624 5622 5620 5618 5616 5614 5612 5610 5607 5605 5603 5602 5600 5598 5596 5594 5592 5590 5588 5586 5584 5582 5579 5577 5574 5571 5569 5566 5563 5560 5557 5555 5552 5549 5546 5543 5540 5537 5533 5530 5528 5525 5522 5520 5518 5515 5511 5508 5506 5503
5709 5706 5704 5701 5698 5695 5692 5689 5686 5684 5681 5679 5676 5674 5671 5668 5665 5662 5659 5656 5654 5651 5649 5646 5644 5641 5638 5636 5634 5632 5630 5627 5625 5622 5620 5619 5617 5615 5613 5611 5609 5607 5605 5603 5600 5598 5596 5595 5593 5591 5589 5587 5585 5582 5580 5578 5576 5574 5571 5568 5565 5563 5560 5557 5554 5551 5548 5546 5542 5539 5536 5533 5530 5526 5523 5520 5518 5515 5512 5510 5507 5504 5500 5498 5494
5705 5703 5700 5698 5695 5692 5689 5686 5683 5680 5677 5675 5672 5669 5667 5664 5661 5658 5655 5653 5650 5647 5645 5642 5639 5636 5634 5631 5629 5627 5625 5622 5619 5617 5615 5613 5611 5610 5608 5606 5604 5602 5600 5598 5595 5593 5591 5590 5588 5586 5584 5582 5579 5577 5575 5573 5571 5568 5566 5563 5560 5557 5554 5551 5548 5545 5542 5539 5536 5532 5529 5526 5522 5519 5516 5512 5510 5507 5504 5501 5499 5496 5492 5489 5486
5702 5699 5696 5694 5691 5688 5685 5683 5679 5676 5673 5670 5668 5665 5663 5660 5657 5654 5651 5648 5645 5642 5640 5637 5634 5631 5629 5626 5624 5622 5619 5617 5614 5611 5609 5608 5606 5604 5602 5600 5598 5597 5594 5592 5590 5588 5586 5584 5582 5580 5578 5576 5574 5572 5570 5568 5565 5563 5560 5557 5554 5551 5548 5545 5541 5538 5535 5532 5529 5525 5522 5519 5515 5512 5508 5505 5502 5499 5496 5493 5490 5487 5484 5481 5478
5698 5695 5692 5689 5686 5684 5681 5678 5675 5672 5668 5665 5663 5661 5658 5655 5652 5649 5646 5643 5640 5638 5635 5632 5629 5626 5623 5621 5618 5616 5614 5611 5608 5606 5604 5602 5601 5599 5597 5595 5593 5591 5589 5587 5585 5582 5580 5579 5577 5575 5573 5571 5569 5567 5565 5562 5559 5557 5554 5551 5548 5545 5542 5539 5535 5532 5529 5525 5522 5518 5515 5512 5508 5504 5501 5497 5494 5491 5488 5484 5481 5478 5475 5472 5469
5696 5692 5688 5685 5682 5679 5677 5674 5671 5667 5664 5661 5658 5655 5653 5650 5647 5644 5641 5638 5636 5633 5630 5626 5623 5621 5618 5615 5612 5610 5608 5606 5603 5600 5598 5597 5595 5593 5591 5590 5588 5585 5583 5581 5579 5577 5574 5573 5571 5569 5567 5565 5563 5561 5558 5556 5553 5551 5548 5545 5542 5539 5535 5532 5529 5526 5522 5519 5515 5511 5508 5504 5500 5496 5493 5489 5486 5483 5480 5476 5473 5469 5466 5463 5460
5693 5689 5685 5682 5678 5675 5672 5669 5666 5662 5659 5656 5653 5650 5647 5644 5642 5638 5635 5633 5630 5627 5624 5621 5618 5615 5612 5610 5607 5604 5602 5599 5597 5595 5593 5591 5589 5587 5586 5584 5582 5580 5578 5575 5573 5571 5569 5567 5565 5563 5561 5558 5556 5554 5552 5549 5547 5544 5542 5539 5536 5532 5529 5526 5522 5519 5515 5512 5508 5505 5500 5496 5492 5488 5485 5481 5478 5474 5471 5468 5464 5460 5457 5454 5451
5689 5686 5683 5679 5675 5671 5668 5664 5661 5658 5654 5651 5647 5644 5641 5638 5636 5632 5629 5627 5624 5621 5619 5616 5612 5609 5606 5604 5601 5598 5595 5593 5591 5589 5587 5585 5583 5582 5580 5579 5577 5574 5572 5570 5568 5565 5562 5561 5559 5557 5555 5552 5550 5547 5545 5542 5540 5538 5535 5532 5529 5526 5523 5519 5515 5512 5508 5504 5501 5497 5493 5489 5485 5481 5477 5473 5470 5466 5462 5459 5455 5451 5448 5444 5441
5685 5682 5679 5676 5672 5668 5664 5660 5657 5653 5649 5645 5642 5639 5635 5632 5630 5626 5623 5621 5618 5615 5612 5609 5606 5603 5600 5597 5595 5592 5589 5586 5585 5583 5582 5580 5578 5576 5575 5573 5571 5569 5566 5564 5562 5559 5556 5555 5553 5551 5548 5546 5543 5540 5538 5535 5533 5531 5528 5525 5522 5519 5516 5512 5508 5504 5500 5496 5493 5489 5485 5481 5477 5473 5469 5465 5462 5458 5454 5450 5446 5442 5438 5435 5431
5681 5678 5675 5672 5668 5664 5661 5657 5653 5648 5644 5640 5637 5633 5630 5627 5624 5620 5617 5615 5612 5609 5606 5603 5600 5597 5593 5591 5589 5586 5582 5580 5579 5578 5576 5574 5572 5571 5569 5568 5565 5563 5560 5558 5555 5553 5551 5549 5547 5545 5542 5540 5536 5533 5531 5529 5526 5524 5521 5518 5515 5512 5508 5505 5500 5496 5492 5489 5485 5481 5477 5473 5469 5465 5461 5457 5453 5449 5445 5442 5437 5433 5429 5426 5422
5676 5674 5671 5667 5664 5660 5656 5652 5648 5644 5640 5636 5632 5628 5624 5621 5618 5614 5611 5608 5605 5602 5599 5596 5593 5590 5587 5584 5582 5580 5577 5574 5573 5572 5570 5568 5567 5565 5564 5562 5559 5557 5554 5551 5549 5546 5544 5542 5540 5539 5536 5533 5530 5527 5525 5522 5520 5517 5514 5510 5507 5504 5500 5497 5493 5488 5485 5481 5477 5472 5468 5464 5460 5456 5452 5448 5444 5440 5435 5431 5427 5423 5419 5415 5411
5672 5669 5666 5662 5659 5655 5651 5647 5643 5639 5635 5631 5626 5622 5619 5615 5612 5608 5605 5602 5599 5596 5592 5590 5587 5584 5581 5578 5576 5575 5572 5569 5567 5567 5565 5563 5561 5560 5558 5556 5554 5551 5549 5545 5542 5540 5539 5536 5534 5532 5530 5527 5524 5521 5519 5516 5513 5510 5506 5503 5500 5497 5493 5489 5485 5480 5477 5473 5468 5464 5460 5455 5451 5447 5443 5438 5434 5430 5425 5421 5417 5412 5408 5404 5400
5668 5664 5661 5657 5653 5649 5645 5641 5637 5634 5630 5625 5621 5617 5613 5609 5605 5602 5599 5596 5593 5589 5586 5583 5581 5577 5575 5573 5571 5569 5567 5564 5562 5561 5559 5557 5556 5554 5552 5550 5548 5546 5543 5540 5537 5535 5533 5531 5528 5526 5524 5521 5518 5515 5512 5509 5506 5503 5499 5495 5492 5489 5485 5481 5477 5473 5468 5464 5459 5455 5451 5446 5442 5438 5433 5428 5424 5420 5415 5410 5406 5401 5397 5393 5388
5663 5659 5656 5651 5647 5643 5639 5635 5631 5627 5624 5620 5615 5611 5607 5603 5599 5596 5592 5589 5586 5583 5579 5577 5575 5572 5569 5567 5565 5563 5562 5560 5557 5556 5554 5552 5550 5549 5547 5545 5542 5540 5537 5534 5532 5530 5527 5525 5522 5519 5517 5514 5511 5508 5505 5501 5498 5495 5491 5488 5485 5481 5478 5474 5469 5465 5460 5455 5451 5446 5442 5437 5433 5429 5424 5419 5415 5410 5405 5400 5396 5390 5386 5382 5378
5658 5654 5650 5646 5641 5637 5633 5629 5625 5621 5617 5613 5609 5605 5601 5597 5593 5589 5586 5583 5579 5576 5573 5570 5569 5567 5564 5562 5560 5558 5557 5555 5553 5550 5549 5547 5545 5542 5541 5538 5536 5533 5531 5528 5526 5524 5521 5518 5516 5512 5509 5507 5504 5501 5497 5494 5491 5487 5484 5480 5477 5473 5469 5465 5461 5456 5451 5447 5443 5438 5433 5429 5424 5420 5415 5410 5405 5401 5395 5390 5386 5381 5375 5371 5366
5652 5648 5644 5640 5635 5630 5626 5622 5618 5614 5610 5606 5603 5599 5594 5591 5587 5583 5580 5576 5573 5569 5567 5564 5563 5561 5558 5556 5554 5552 5551 5549 5547 5545 5544 5542 5539 5536 5534 5532 5529 5526 5524 5522 5520 5517 5515 5511 5508 5505 5502 5499 5496 5493 5489 5486 5483 5480 5476 5472 5469 5465 5461 5457 5452 5448 5443 5438 5434 5429 5425 5420 5416 5411 5406 5402 5397 5392 5387 5382 5376 5371 5366 5361 5355
5647 5642 5638 5634 5629 5624 5619 5615 5611 5607 5603 5599 5596 5592 5588 5584 5580 5576 5573 5570 5567 5563 5561 5558 5556 5554 5552 5550 5548 5546 5544 5543 5541 5539 5537 5535 5532 5529 5527 5525 5522 5520 5518 5516 5513 5510 5507 5504 5501 5498 5495 5492 5489 5485 5482 5478 5475 5473 5469 5464 5461 5457 5453 5448 5444 5439 5435 5430 5425 5421 5416 5412 5407 5402 5398 5393 5388 5383 5378 5372 5367 5361 5356 5351 5345
5641 5636 5632 5627 5623 5618 5613 5608 5604 5600 5596 5592 5588 5584 5581 5577 5573 5569 5566 5564 5561 5557 5554 5552 5550 5548 5546 5544 5541 5539 5537 5535 5534 5533 5531 5528 5525 5522 5520 5517 5515 5513 5510 5508 5506 5503 5500 5497 5494 5490 5487 5484 5482 5478 5475 5471 5468 5465 5461 5457 5453 5449 5444 5440 5435 5431 5426 5422 5417 5413 5408 5403 5398 5393 5388 5383 5378 5373 5368 5362 5357 5351 5345 5340 5335
5634 5630 5625 5621 5616 5612 5607 5601 5596 5592 5588 5584 5580 5577 5573 5570 5566 5563 5560 5557 5554 5551 5548 5546 5544 5542 5539 5537 5534 5532 5530 5529 5527 5526 5523 5521 5517 5515 5513 5510 5508 5505 5503 5501 5498 5495 5492 5489 5486 5483 5480 5477 5475 5471 5467 5463 5459 5456 5453 5449 5445 5440 5436 5431 5427 5422 5418 5413 5408 5404 5399 5394 5389 5383 5378 5373 5368 5363 5358 5352 5347 5341 5334 5329 5324
5627 5622 5618 5613 5609 5604 5599 5594 5589 5584 5580 5576 5572 5569 5566 5563 5559 5556 5553 5550 5547 5544 5541 5539 5537 5535 5533 5530 5528 5526 5523 5522 5520 5518 5515 5513 5511 5508 5506 5503 5501 5498 5495 5494 5491 5488 5485 5482 5479 5476 5473 5470 5467 5463 5459 5455 5451 5447 5444 5440 5436 5432 5427 5422 5418 5413 5408 5403 5398 5394 5389 5384 5379 5373 5368 5363 5358 5352 5347 5342 5336 5331 5324 5319 5314
5620 5615 5610 5605 5600 5595 5591 5586 5581 5576 5572 5568 5564 5561 5558 5555 5553 5549 5546 5543 5541 5538 5535 5532 5530 5528 5526 5524 5522 5520 5517 5515 5513 5511 5509 5507 5505 5502 5499 5496 5494 5491 5488 5486 5484 5481 5478 5475 5472 5469 5466 5462 5458 5455 5451 5447 5443 5439 5435 5431 5426 5422 5417 5413 5408 5403 5398 5393 5389 5384 5379 5373 5368 5363 5358 5352 5347 5341 5335 5330 5325 5320 5314 5309 5304
5613 5608 5603 5598 5592 5586 5581 5577 5573 5569 5564 5560 5557 5554 5550 5548 5545 5542 5538 5536 5534 5531 5529 5526 5524 5522 5520 5518 5516 5514 5512 5510 5508 5505 5503 5500 5498 5495 5492 5489 5487 5484 5481 5479 5476 5474 5471 5468 5464 5461 5457 5453 5450 5446 5442 5438 5434 5430 5426 5421 5417 5412 5407 5403 5398 5393 5388 5383 5378 5374 5368 5363 5358 5353 5347 5342 5336 5330 5324 5318 5313 5308 5303 5298 5294
5606 5600 5594 5589 5583 5577 5573 5569 5564 5561 5557 5553 5549 5546 5543 5540 5537 5534 5531 5528 5527 5525 5523 5521 5518 5515 5513 5512 5510 5509 5507 5504 5502 5499 5495 5492 5490 5488 5485 5482 5480 5477 5474 5471 5469 5466 5463 5460 5456 5453 5449 5445 5441 5437 5433 5429 5425 5421 5416 5412 5407 5402 5397 5392 5387 5382 5377 5373 5368 5363 5358 5353 5348 5342 5337 5331 5325 5319 5313 5307 5301 5296 5291 5286 5281
5598 5591 5585 5579 5574 5569 5565 5561 5557 5553 5550 5546 5542 5539 5535 5532 5530 5527 5524 5521 5520 5519 5517 5515 5512 5509 5507 5506 5504 5503 5501 5498 5495 5492 5489 5486 5483 5480 5478 5475 5473 5470 5468 5465 5461 5458 5455 5451 5448 5444 5440 5436 5433 5428 5424 5420 5416 5411 5406 5402 5397 5392 5387 5382 5377 5372 5367 5362 5357 5352 5347 5343 5337 5332 5326 5320 5315 5308 5302 5296 5290 5284 5279 5273 5269
5589 5583 5576 5570 5565 5561 5557 5553 5549 5546 5543 5539 5536 5532 5529 5526 5523 5521 5518 5516 5514 5513 5511 5508 5506 5504 5502 5500 5498 5496 5494 5491 5489 5486 5482 5479 5476 5474 5471 5469 5466 5463 5460 5457 5454 5450 5447 5443 5440 5436 5432 5428 5424 5420 5415 5411 5406 5402 5397 5392 5387 5382 5377 5372 5367 5362 5357 5352 5347 5342 5337 5332 5327 5321 5316 5310 5304 5297 5291 5284 5278 5272 5267 5262 5256
5579 5574 5568 5562 5557 5553 5549 5546 5542 5539 5536 5532 5529 5526 5522 5519 5516 5514 5513 5510 5508 5506 5504 5502 5500 5497 5496 5494 5492 5489 5487 5484 5481 5479 5476 5473 5470 5467 5464 5461 5458 5456 5453 5450 5446 5443 5439 5435 5432 5428 5424 5420 5415 5411 5407 5402 5397 5392 5387 5382 5377 5372 5367 5362 5357 5353 5348 5343 5337 5332 5327 5322 5316 5311 5305 5298 5292 5286 5279 5272 5266 5260 5255 5250 5244
5569 5565 5559 5554 5550 5546 5542 5538 5535 5532 5529 5526 5522 5519 5517 5514 5511 5508 5506 5505 5502 5500 5497 5495 5493 5491 5489 5487 5485 5483 5480 5477 5474 5471 5468 5465 5462 5460 5457 5454 5451 5448 5446 5442 5439 5435 5431 5427 5424 5420 5416 5412 5407 5403 5398 5393 5389 5384 5378 5373 5368 5362 5357 5352 5348 5343 5338 5333 5327 5322 5316 5311 5305 5299 5294 5287 5280 5274 5268 5261 5255 5249 5243 5238 5233
5559 5555 5550 5546 5542 5538 5534 5531 5528 5526 5522 5519 5516 5513 5511 5508 5505 5502 5500 5498 5496 5493 5491 5489 5487 5485 5483 5480 5478 5476 5473 5470 5467 5464 5461 5458 5456 5452 5450 5447 5444 5441 5438 5434 5431 5427 5423 5419 5415 5412 5408 5403 5399 5394 5390 5385 5380 5375 5369 5364 5358 5353 5348 5343 5338 5333 5328 5323 5317 5311 5305 5300 5294 5288 5282 5276 5269 5262 5256 5250 5243 5238 5232 5226 5221
5550 5546 5541 5537 5534 5531 5527 5524 5522 5520 5516 5513 5511 5508 5505 5502 5499 5496 5494 5492 5490 5487 5485 5483 5481 5479 5476 5473 5471 5468 5466 5462 5459 5456 5453 5451 5448 5445 5442 5439 5436 5432 5429 5426 5422 5418 5414 5410 5407 5403 5399 5394 5389 5385 5380 5375 5370 5365 5360 5354 5349 5343 5338 5334 5328 5323 5318 5312 5306 5300 5294 5288 5282 5276 5270 5264 5257 5250 5244 5238 5232 5226 5220 5214 5209
5542 5537 5534 5530 5527 5523 5521 5518 5516 5514 5511 5508 5505 5502 5499 5496 5493 5491 5488 5486 5484 5482 5480 5477 5475 5472 5469 5466 5464 5461 5458 5455 5452 5449 5446 5443 5440 5437 5433 5430 5427 5424 5420 5417 5413 5409 5405 5401 5397 5393 5389 5384 5380 5375 5370 5365 5361 5356 5350 5345 5340 5334 5329 5324 5319 5313 5308 5302 5295 5289 5283 5277 5270 5264 5258 5252 5245 5238 5232 5226 5220 5215 5209 5203 5197
5533 5530 5527 5523 5520 5517 5514 5512 5510 5508 5505 5502 5498 5495 5493 5490 5487 5485 5483 5480 5478 5476 5474 5471 5468 5465 5462 5459 5456 5454 5451 5448 5445 5442 5439 5435 5432 5429 5425 5422 5418 5415 5411 5407 5404 5400 5396 5392 5388 5383 5379 5375 5370 5365 5361 5356 5351 5346 5341 5336 5330 5325 5320 5314 5309 5303 5297 5291 5285 5278 5271 5265 5258 5251 5245 5240 5233 5227 5221 5215 5209 5204 5198 5191 5185
5526 5523 5520 5517 5513 5511 5508 5506 5504 5502 5499 5495 5492 5489 5486 5484 5481 5479 5477 5475 5472 5470 5468 5465 5462 5459 5456 5453 5449 5446 5444 5441 5438 5435 5432 5428 5425 5421 5418 5414 5410 5406 5402 5399 5395 5391 5387 5383 5379 5375 5370 5366 5361 5356 5351 5346 5341 5336 5331 5326 5321 5315 5309 5304 5298 5292 5286 5280 5274 5267 5260 5253 5246 5239 5233 5227 5221 5215 5209 5203 5197 5192 5186 5181 5174
5519 5517 5514 5510 5508 5505 5503 5500 5498 5495 5492 5489 5486 5483 5480 5478 5475 5473 5470 5468 5466 5463 5460 5458 5455 5452 5448 5445 5442 5439 5436 5433 5430 5427 5424 5421 5417 5413 5410 5406 5401 5398 5394 5390 5386 5382 5378 5373 5369 5365 5360 5356 5351 5347 5342 5336 5331 5326 5321 5315 5310 5304 5298 5293 5287 5281 5275 5268 5262 5255 5248 5241 5235 5228 5222 5216 5209 5203 5198 5192 5186 5180 5174 5169 5164
5514 5511 5507 5504 5501 5499 5497 5494 5492 5489 5486 5483 5480 5477 5474 5471 5469 5466 5464 5461 5459 5456 5453 5451 5448 5444 5441 5437 5434 5432 5429 5426 5423 5419 5416 5412 5409 5405 5401 5397 5393 5389 5385 5381 5376 5372 5368 5364 5359 5355 5350 5346 5341 5336 5331 5326 5320 5315 5310 5304 5299 5293 5287 5281 5275 5269 5263 5257 5250 5243 5236 5229 5223 5216 5210 5204 5197 5192 5186 5181 5175 5169 5163 5158 5152
5508 5504 5501 5498 5495 5493 5490 5487 5484 5482 5479 5476 5473 5470 5467 5464 5462 5459 5456 5454 5452 5449 5446 5443 5440 5437 5433 5430 5427 5424 5421 5418 5414 5411 5407 5404 5400 5396 5392 5388 5384 5380 5375 5371 5367 5362 5358 5354 5349 5345 5340 5336 5331 5326 5320 5315 5310 5305 5299 5294 5288 5282 5276 5269 5263 5256 5250 5245 5238 5231 5224 5217 5211 5205 5199 5192 5185 5180 5175 5169 5164 5158 5152 5147 5141
5501 5498 5495 5492 5489 5486 5483 5480 5477 5474 5471 5469 5466 5463 5460 5457 5455 5452 5449 5446 5443 5441 5438 5435 5433 5429 5426 5422 5419 5416 5413 5409 5406 5402 5398 5394 5390 5386 5382 5378 5374 5370 5365 5361 5357 5353 5348 5344 5339 5335 5330 5325 5320 5315 5310 5304 5299 5294 5289 5283 5277 5271 5265 5258 5251 5245 5238 5232 5226 5219 5212 5205 5199 5192 5186 5180 5173 5168 5163 5158 5153 5147 5141 5136 5131
5495 5492 5489 5486 5483 5480 5477 5474 5471 5467 5464 5462 5460 5457 5453 5450 5448 5445 5442 5439 5436 5433 5430 5427 5424 5420 5417 5414 5410 5407 5403 5400 5396 5392 5388 5384 5380 5377 5373 5368 5364 5360 5356 5352 5348 5343 5338 5334 5329 5324 5319 5314 5309 5304 5299 5294 5289 5284 5278 5273 5266 5260 5253 5247 5240 5233 5226 5219 5213 5206 5200 5193 5186 5180 5174 5167 5161 5156 5151 5146 5141 5136 5131 5126 5121
5489 5487 5484 5480 5477 5474 5471 5468 5465 5462 5459 5456 5453 5450 5447 5444 5441 5438 5435 5432 5429 5426 5422 5419 5415 5412 5408 5405 5401 5397 5394 5390 5386 5382 5378 5374 5370 5367 5363 5359 5355 5351 5346 5342 5337 5333 5328 5323 5318 5313 5308 5303 5298 5293 5288 5283 5278 5273 5267 5261 5255 5248 5241 5234 5227 5220 5213 5207 5200 5194 5188 5181 5174 5168 5161 5155 5149 5144 5140 5135 5130 5125 5120 5116 5111
5483 5480 5478 5474 5471 5468 5465 5462 5459 5456 5453 5450 5447 5444 5440 5437 5434 5430 5427 5424 5421 5418 5414 5410 5406 5403 5399 5395 5392 5388 5384 5380 5377 5373 5369 5365 5361 5357 5353 5350 5346 5341 5337 5332 5327 5322 5317 5312 5307 5302 5297 5292 5287 5282 5277 5272 5267 5261 5255 5248 5242 5235 5228 5220 5213 5207 5200 5194 5188 5182 5176 5169 5163 5156 5150 5144 5138 5133 5129 5124 5119 5115 5110 5106 5101
5477 5474 5471 5468 5465 5462 5459 5456 5453 5450 5447 5443 5440 5436 5433 5429 5426 5423 5419 5416 5412 5408 5405 5401 5397 5393 5389 5385 5382 5378 5375 5371 5367 5364 5360 5356 5352 5348 5344 5340 5336 5331 5327 5322 5317 5311 5306 5301 5296 5290 5285 5280 5275 5270 5265 5259 5253 5247 5241 5234 5228 5221 5214 5207 5200 5193 5187 5181 5175 5169 5163 5157 5151 5145 5138 5132 5127 5122 5118 5114 5109 5105 5100 5096 5091
5470 5467 5464 5461 5458 5456 5453 5450 5446 5443 5439 5436 5432 5429 5425 5422 5418 5415 5411 5407 5404 5400 5396 5392 5388 5384 5380 5376 5373 5369 5365 5362 5358 5355 5351 5347 5343 5339 5335 5330 5326 5321 5316 5311 5306 5300 5295 5290 5284 5279 5273 5268 5263 5257 5252 5246 5240 5234 5227 5220 5214 5207 5200 5193 5187 5181 5174 5168 5162 5157 5151 5145 5139 5133 5127 5121 5116 5111 5107 5103 5099 5094 5090 5086 5081
5463 5460 5457 5454 5451 5448 5446 5442 5439 5436 5432 5429 5425 5421 5418 5414 5410 5406 5403 5399 5395 5391 5387 5384 5380 5376 5372 5368 5364 5360 5356 5352 5349 5345 5341 5337 5333 5328 5324 5319 5314 5310 5305 5300 5295 5289 5284 5278 5273 5267 5262 5256 5250 5245 5239 5233 5227 5220 5214 5207 5200 5193 5186 5180 5173 5167 5161 5155 5149 5143 5138 5133 5127 5121 5116 5110 5105 5100 5096 5092 5088 5084 5080 5076 5071
5456 5453 5450 5447 5444 5441 5438 5435 5431 5428 5424 5420 5416 5412 5408 5404 5400 5397 5393 5389 5386 5382 5378 5375 5371 5367 5363 5359 5355 5351 5347 5343 5339 5335 5331 5326 5322 5317 5313 5308 5303 5299 5293 5288 5283 5278 5272 5267 5262 5256 5250 5245 5239 5233 5227 5220 5214 5207 5200 5193 5186 5180 5173 5166 5160 5153 5148 5142 5137 5131 5126 5120 5115 5110 5105 5099 5094 5090 5086 5082 5078 5074 5070 5066 5061
5450 5447 5444 5441 5437 5434 5430 5427 5423 5420 5416 5412 5408 5404 5399 5395 5391 5387 5384 5380 5376 5373 5369 5365 5361 5357 5353 5349 5345 5341 5337 5333 5329 5324 5320 5316 5311 5306 5302 5297 5292 5287 5282 5277 5272 5266 5261 5255 5250 5245 5239 5233 5227 5221 5214 5207 5200 5193 5186 5179 5173 5166 5159 5153 5146 5140 5135 5130 5125 5119 5114 5109 5104 5099 5094 5089 5084 5080 5076 5071 5067 5063 5059 5055 5051
5443 5440 5437 5433 5430 5426 5423 5419 5415 5412 5408 5404 5399 5395 5391 5386 5382 5378 5375 5371 5367 5363 5360 5356 5352 5348 5344 5339 5335 5331 5327 5323 5318 5314 5310 5305 5300 5296 5291 5286 5281 5276 5271 5266 5261 5255 5250 5244 5239 5233 5228 5222 5215 5209 5202 5195 5187 5180 5173 5166 5159 5153 5146 5139 5133 5127 5122 5117 5112 5106 5101 5097 5092 5087 5082 5077 5073 5069 5066 5062 5057 5053 5049 5045 5041